Marshfield, WI

6:20 PM CST on January 20, 2017 (GMT -0600)
Marshfield Municipal

Weather History for KMFI - March, 2013

Change the Weather History Date:

Sunday, March 3, 2013

  Actual Average Record
Temperature  
Mean Temperature 16 °F -  
Max Temperature 24 °F 33 °F 51 °F (1923)
Min Temperature 7 °F 15 °F -17 °F (1943)
Degree Days  
Heating Degree Days 50    
Moisture  
Dew Point 0 °F    
Average Humidity 51    
Maximum Humidity 80    
Minimum Humidity 25    
Precipitation  
Precipitation 0.00 in - - ()
Sea Level Pressure  
Sea Level Pressure 30.15 in    
Wind  
Wind Speed 3 mph (NE)    
Max Wind Speed 6 mph    
Max Gust Speed -    
Visibility 10 miles    
Events      
Averages and records for this station are not official NWS values.
T = Trace of Precipitation, MM = Missing Value Source: NWS Daily Summary

Daily Weather History Graph

Daily Weather History Graph

Search for Another Location

Airport or City:

Trip Planner

Search our weather history database for the weather conditions in past years. The results will help you decide how hot, cold, wet, or windy it might be!

Date:

Astronomy

Mar. 03, 2013 Rise Set
Actual Time 6:34 AM CST 5:51 PM CST
Civil Twilight 6:05 AM CST 6:20 PM CST
Nautical Twilight 5:31 AM CST 6:54 PM CST
Astronomical Twilight 4:57 AM CST 7:28 PM CST
Moon No Moon Rise 9:33 AM CST (3/3)
Length of Visible Light 12h 15m
Length of Day
11h 17m
Waning Gibbous, 63% of the Moon is Illuminated
Mar 3
Waning Gibbous
Mar 4
Last Quarter
Mar 11
New
Mar 19
First Quarter
Mar 27
Full

Hourly Weather History & Observations

Time (CST) Temp. Windchill Dew Point Humidity Pressure Visibility Wind Dir Wind Speed Gust Speed Precip Events Conditions
12:54 AM 14.0 °F 6.5 °F 3.0 °F 62% 30.19 in 10.0 mi NE 4.6 mph - N/A   Clear
1:54 AM 12.9 °F 5.2 °F 1.9 °F 62% 30.19 in 10.0 mi NNE 4.6 mph - N/A   Clear
3:54 AM 10.9 °F 1.4 °F 3.0 °F 70% 30.18 in 10.0 mi NE 5.8 mph - N/A   Clear
4:54 AM 9.0 °F -0.9 °F 1.9 °F 73% 30.19 in 10.0 mi NE 5.8 mph - N/A   Clear
5:54 AM 8.1 °F -2.0 °F 1.9 °F 76% 30.20 in 10.0 mi NE 5.8 mph - N/A   Clear
6:54 AM 7.0 °F -3.3 °F 1.9 °F 80% 30.20 in 10.0 mi NE 5.8 mph - N/A   Clear
7:54 AM 10.0 °F 0.4 °F 3.0 °F 73% 30.21 in 10.0 mi NE 5.8 mph - N/A   Clear
8:54 AM 14.0 °F 6.5 °F 3.0 °F 62% 30.20 in 10.0 mi ENE 4.6 mph - N/A   Clear
9:54 AM 16.0 °F 8.8 °F 3.0 °F 57% 30.19 in 10.0 mi East 4.6 mph - N/A   Clear
10:54 AM 19.0 °F - 3.0 °F 50% 30.18 in 10.0 mi Calm Calm - N/A   Clear
11:54 AM 21.9 °F - 1.0 °F 40% 30.17 in 10.0 mi Calm Calm - N/A   Clear
12:54 PM 23.0 °F - -2.9 °F 32% 30.14 in 10.0 mi Calm Calm - N/A   Clear
1:54 PM 24.1 °F - -2.9 °F 31% 30.12 in 10.0 mi Calm Calm - N/A   Clear
2:54 PM 24.1 °F - -7.1 °F 25% 30.11 in 10.0 mi Calm Calm - 0.00 in   Clear
3:54 PM 24.1 °F 19.7 °F -7.1 °F 25% 30.11 in 10.0 mi SSW 3.5 mph - N/A   Clear
4:54 PM 24.1 °F - -4.0 °F 29% 30.11 in 10.0 mi Calm Calm - N/A   Clear
5:54 PM 21.9 °F - -4.0 °F 32% 30.11 in 10.0 mi Calm Calm - N/A   Clear
6:54 PM 19.0 °F - -2.9 °F 38% 30.12 in 10.0 mi Calm Calm - N/A   Clear
7:54 PM 15.1 °F - -2.9 °F 45% 30.12 in 10.0 mi Calm Calm - N/A   Clear
8:54 PM 14.0 °F - 1.0 °F 56% 30.13 in 10.0 mi Calm Calm - N/A   Clear
9:54 PM 15.1 °F - 1.0 °F 54% 30.12 in 10.0 mi Calm Calm - N/A   Clear
10:54 PM 14.0 °F - -0.9 °F 52% 30.11 in 10.0 mi Calm Calm - N/A   Clear
11:54 PM 12.9 °F - 1.0 °F 59% 30.11 in 10.0 mi Calm Calm - N/A   Clear